Flag for Germany Weather past 2 weeks in Werl, North Rhine-Westphalia, Germany

Now
43 °F

Light rain. Passing clouds.


Feels Like: 35 °F
Forecast: 40 / 49 °F
Wind: 15 mph from West

Location: Paderborn / Lippstadt

Current Time: Mar 30, 2015 at 3:15:55 AM

Latest Report: Mar 30, 2015 at 2:20 AM


Visibility: N/A

Pressure: 29.36 "Hg

Humidity: 76%

Dew point: 36 °F

Location of WerlLocation

Historic Weather in Werl — Graph

°F

Werl temperature yesterday

Maximum temperature yesterday: 50 °F (at 3:20 AM)
Minimum temperature yesterday: 43 °F (at 11:50 PM)
Average temperature yesterday: 48 °F

Past Weeks' High & Low Weather Summary

 TemperatureHumidityPressure
High59 °F (Mar 17, 3:20 PM)100% (Mar 15, 12:20 AM)30.36 "Hg (Mar 15, 12:20 AM)
Low28 °F (Mar 23, 2:50 AM)41% (Mar 25, 11:50 AM)29.21 "Hg (Mar 29, 7:50 PM)
Average42 °F82%30.04 "Hg
* Reported Mar 15 12:20 AM — Mar 30 1:50 AM, Werl, Weather by CustomWeather, © 2015

Note: Actual official high and low records may vary slightly from our data, if they occured in-between our weather recording intervals... More about our weather records

Advertising

Werl weather history for previous 24 hours

 ConditionsComfort  
Time TempWeatherWind HumidityBarometerVisibility
1:50 AM
Mon, Mar 30
43 °FLight rain. Passing clouds.14 mph76%29.36 "HgN/A
1:20 AM43 °FLight rain. Passing clouds.14 mph76%29.36 "HgN/A
12:50 AM41 °FLight rain. Passing clouds.14 mph87%29.33 "HgN/A
12:20 AM41 °FLight rain. Passing clouds.18 mph87%29.33 "HgN/A
11:50 PM
Sun, Mar 29
43 °FPassing clouds.21 mph76%29.30 "HgN/A
11:20 PM45 °FPassing clouds.20 mph71%29.30 "HgN/A
10:50 PM45 °FPartly cloudy.22 mph71%29.27 "HgN/A
10:20 PM45 °FPartly cloudy.22 mph81%29.24 "HgN/A
9:50 PM45 °FPartly cloudy.24 mph81%29.24 "HgN/A
9:20 PM45 °FThundershowers. Passing clouds.26 mph81%29.24 "HgN/A
8:50 PM50 °FRain. Broken clouds.29 mph76%29.21 "Hg4 mi
8:20 PM50 °FLight rain. Broken clouds.28 mph82%29.21 "Hg4 mi
7:50 PM50 °FLight rain. Broken clouds.23 mph88%29.21 "Hg4 mi
7:20 PM48 °FRain. Broken clouds.23 mph87%29.24 "Hg3 mi
6:50 PM48 °FRain. Broken clouds.23 mph87%29.24 "Hg4 mi
6:20 PM48 °FRain. Partly sunny.22 mph87%29.27 "Hg4 mi
5:50 PM48 °FLight rain. Broken clouds.21 mph87%29.30 "Hg4 mi
5:20 PM48 °FLight rain. Broken clouds.22 mph82%29.33 "HgN/A
4:50 PM50 °FBroken clouds.18 mph76%29.36 "HgN/A
4:20 PM48 °FBroken clouds.21 mph82%29.39 "Hg6 mi
3:50 PM48 °FBroken clouds.17 mph87%29.42 "Hg6 mi
3:20 PM48 °FLight rain. Broken clouds.15 mph87%29.45 "Hg6 mi
2:50 PM46 °FLight rain. Broken clouds.12 mph87%29.47 "HgN/A
2:20 PM46 °FLight rain. Broken clouds.15 mph93%29.50 "HgN/A
1:50 PM46 °FLight rain. Broken clouds.17 mph87%29.50 "HgN/A
1:20 PM46 °FLight rain. Broken clouds.18 mph87%29.53 "HgN/A
12:50 PM46 °FLight rain. Partly sunny.18 mph87%29.53 "HgN/A
12:20 PM46 °FLight rain. Partly sunny.18 mph87%29.56 "HgN/A
11:50 AM46 °FLight rain. Partly sunny.18 mph87%29.56 "HgN/A
11:20 AM46 °FLight rain. Partly sunny.16 mph87%29.59 "HgN/A
10:50 AM46 °FLight rain. Broken clouds.16 mph82%29.59 "HgN/A
10:20 AM46 °FDrizzle. Broken clouds.15 mph82%29.62 "HgN/A
9:50 AM46 °FDrizzle. Broken clouds.18 mph82%29.62 "HgN/A
9:20 AM48 °FBroken clouds.14 mph71%29.62 "HgN/A
8:50 AM48 °FBroken clouds.14 mph71%29.62 "HgN/A
8:20 AM48 °FBroken clouds.18 mph71%29.65 "HgN/A
7:50 AM48 °FPartly cloudy.15 mph76%29.65 "HgN/A
7:20 AM48 °FLight rain. Partly cloudy.14 mph76%29.65 "HgN/A
6:50 AM48 °FLight rain. Partly cloudy.21 mph76%29.65 "HgN/A
6:20 AM50 °FPartly cloudy.17 mph67%29.65 "HgN/A
5:50 AM50 °FPartly cloudy.16 mph71%29.65 "HgN/A
5:20 AM50 °FPartly cloudy.20 mph67%29.68 "HgN/A
4:50 AM50 °FLight rain. Overcast.17 mph71%29.65 "HgN/A
3:50 AM50 °FLight rain. Overcast.18 mph82%29.68 "HgN/A
3:20 AM50 °FOvercast.17 mph82%29.71 "HgN/A
Weather by CustomWeather, © 2015

See weather overviewHow to use our weather pages